[[{"header":{"parameterUnit":"m.s-1","parameterCategory":1,"la1":30.2991,"la2":30.254,"lo1":-89.0895,"lo2":-89.0444,"dy":0.0017,"dx":0.0017,"nx":28,"ny":28,"refTime":"2024-05-14T03:00:00:Z","depth":0,"parameterNumber":2,"parameterNumberName":"U-component_of_WINDS"},"data":[0,0,0,0,0,0,0,0,0,0,0,0,0,0,0,0,0,0,0,0,0,0,0,0,0,0,0,0,0,0,0,0,0,0,0,0,0,0,0,0,0,0,0,0,0,0,0,0,0,0,0,0,0,0,0,0,0,0,2.405,2.4051,0,2.4112,2.4112,2.4113,2.4064,2.4062,2.406,2.4058,2.4126,2.413,2.4134,0,0,0,0,0,0,0,0,0,0,0,0,0,2.3898,2.3901,2.405,2.4051,2.4052,2.4112,2.4112,2.4113,2.4064,2.4062,2.4059,2.4057,2.4125,2.413,2.4134,0,0,0,0,0,0,0,0,0,0,0,0,0,2.3962,2.3902,2.405,2.4034,2.4034,2.4111,2.4112,2.4113,2.4065,2.4062,2.4059,2.4056,2.4124,2.4129,2.4135,2.4233,0,0,2.4152,2.4155,0,0,0,0,0,0,0,0,2.3959,2.3968,2.4036,2.4036,2.4035,2.4077,2.4084,2.4154,2.4066,2.4053,2.4058,2.4054,2.4113,2.4119,2.4138,2.4236,2.4239,2.4153,2.4156,2.4158,2.416,0,0,0,0,0,0,0,2.3954,2.3965,2.4075,2.4037,2.4037,2.4027,2.4032,2.4097,2.41,2.4054,2.4051,2.4058,2.4112,2.4132,2.4139,2.424,2.4152,2.4157,2.4161,2.4163,2.4425,2.4429,0,0,0,0,0,0,2.395,2.3962,2.4073,2.4077,2.3988,2.4032,2.4038,2.4067,2.4099,2.4101,2.4061,2.4056,2.4124,2.4132,2.4141,2.426,2.4158,2.4164,2.4167,2.4422,2.4426,2.443,0,0,0,0,0,0,2.3947,2.3961,2.407,2.4018,2.4031,2.4038,2.407,2.407,2.409,2.4104,2.4105,2.4081,2.4122,2.4133,2.4211,2.4262,2.4166,2.4171,2.4418,2.4423,2.4428,2.4498,0,0,0,0,0,0,2.3943,2.396,2.3996,2.4019,2.4034,2.4137,2.4073,2.4073,2.4099,2.4093,2.4123,2.4125,2.412,2.4203,2.4216,2.4268,2.4176,2.4413,2.442,2.4426,2.4491,2.4505,2.4517,0,0,0,0,0,2.3938,2.4014,2.3998,2.4011,2.4079,2.414,2.4149,2.414,2.4103,2.4141,2.415,2.4124,2.4254,2.4211,2.4226,2.428,2.441,2.4418,2.4426,2.4486,2.4503,2.4517,0,0,0,0,0,0,2.3997,2.4016,2.3999,2.4084,2.4111,2.4131,2.4178,2.4158,2.4197,2.419,2.4179,2.4186,2.4268,2.4282,2.4234,2.4379,2.4326,2.4338,2.4367,2.4383,2.4396,2.4391,2.4181,0,0,0,0,0,2.402,2.4066,2.4081,2.4155,2.4169,2.4171,2.4198,2.4189,2.4216,2.4228,2.4243,2.4273,2.4321,2.4352,2.4397,2.4493,2.45,2.4538,2.4551,2.4561,2.4572,2.4627,2.4644,2.4456,2.4456,2.4456,0,0,2.4068,2.4084,2.4114,2.4167,2.4187,2.4237,2.4181,2.4236,2.4275,2.4237,2.4311,2.4324,2.4356,2.4444,2.4484,2.4458,2.4625,2.4571,2.458,2.4585,2.4637,2.4655,2.467,2.4462,2.4461,2.446,0,0,2.4182,2.4198,2.4262,2.4282,2.4312,2.4313,2.4329,2.4353,2.436,2.4433,2.4407,2.4453,2.4535,2.456,2.4583,2.4709,2.4687,2.4724,2.4792,2.4845,2.486,2.4873,2.492,2.4937,2.4734,2.4734,2.4734,0,2.4239,2.4311,2.4298,2.4355,2.4381,2.4348,2.4414,2.4436,2.4479,2.4499,2.4469,2.4572,2.4592,2.4686,2.4717,2.4736,2.4756,2.4721,2.4858,2.4872,2.4884,2.4929,2.4946,2.4738,2.4738,2.4737,2.4737,0,2.4381,2.4432,2.4481,2.4522,2.4553,2.4615,2.4613,2.4647,2.4635,2.4641,2.4718,2.474,2.479,2.4811,2.4801,2.4906,2.4889,2.4859,2.4807,2.4906,2.4948,2.4965,2.4744,2.4743,2.4742,2.4741,0,0,2.4534,2.4567,2.4586,2.4605,2.4636,2.4677,2.4739,2.4785,2.4815,2.4847,2.49,2.4971,2.4944,2.497,2.4963,2.501,2.5111,2.4974,2.4975,2.5001,2.5231,2.5254,2.5274,2.5096,2.5099,2.5102,2.5229,0,2.465,2.4755,2.4746,2.4847,2.4896,2.4865,2.492,2.4946,2.4953,2.4998,2.5006,2.5057,2.5016,2.5032,2.5077,2.5089,2.5157,2.5079,2.5149,2.5151,2.5143,2.5296,2.5321,2.5439,2.5245,2.5247,2.5249,0,2.48,2.4836,2.4941,2.4967,2.4987,2.5035,2.5079,2.512,2.5151,2.5153,2.5184,2.5169,2.5234,2.5179,2.5271,2.5218,2.5246,2.5257,2.5261,2.5269,2.5208,2.531,2.5476,2.5495,2.5275,2.5273,2.5271,0,2.4904,2.4979,2.5052,2.5069,2.51,2.5135,2.515,2.5177,2.5207,2.5246,2.5265,2.5312,2.5338,2.5375,2.5375,2.5334,2.5469,2.5413,2.5475,2.5475,2.5506,2.5504,2.5681,2.5521,2.552,2.552,2.552,0,2.5036,2.5103,2.5099,2.5144,2.5219,2.5208,2.5283,2.5294,2.5319,2.5368,2.5345,2.5392,2.5388,2.5436,2.5436,2.5514,2.5525,2.5531,2.5531,2.5534,2.5534,2.5554,2.5546,2.5525,2.5524,2.5523,2.5522,0,2.5166,2.5165,2.5243,2.5266,2.5274,2.5328,2.5348,2.5393,2.5398,2.5461,2.5475,2.5484,2.554,2.5542,2.5607,2.5608,2.5703,2.5692,2.5692,2.5691,2.5753,2.5748,2.5951,2.5978,2.5798,2.58,2.5801,0,2.5251,2.5301,2.5329,2.5359,2.5376,2.5425,2.5455,2.5447,2.548,2.552,2.556,2.5613,2.5656,2.5747,2.5761,2.5812,2.5804,2.5871,2.5811,2.5814,2.5808,2.5805,2.5812,2.5884,2.5885,2.5887,2.5888,0,2.5403,2.5401,2.5443,2.5487,2.5523,2.5557,2.5589,2.5616,2.5613,2.5651,2.5707,2.574,2.5806,2.586,2.5909,2.5927,2.5909,2.5907,2.5924,2.593,2.5928,2.5932,2.5726,2.5903,2.5901,2.59,2.5899,2.5899,2.5514,2.5558,2.5585,2.5634,2.5657,2.5688,2.5731,2.5742,2.5787,2.5839,2.5833,2.5896,2.5928,2.5992,2.6014,2.6066,2.6043,2.6067,2.6074,2.6081,2.6089,2.5918,2.6074,2.6074,2.6073,2.6073,2.6073,0,2.5667,2.5683,2.5728,2.5773,2.5813,2.5789,2.5824,2.5859,2.5914,2.5944,2.5986,2.6053,2.6106,2.6124,2.6177,2.6215,2.6208,2.6229,2.6227,2.6232,2.6105,2.6085,2.6234,2.6234,2.6234,2.6234,2.6234,2.6234,2.5752,2.5826,2.5827,2.5913,2.5929,2.5989,2.6011,2.6041,2.6065,2.6139,2.6182,2.6193,2.622,2.6275,2.6323,2.6328,2.6349,2.6375,2.6376,2.6257,2.6241,2.6225,2.6207,2.6379,2.6379,2.65,2.6501,2.6502]},{"header":{"parameterUnit":"m.s-1","parameterCategory":1,"la1":30.2991,"la2":30.254,"lo1":-89.0895,"lo2":-89.0444,"dy":0.0017,"dx":0.0017,"nx":28,"ny":28,"refTime":"2024-05-14T03:00:00:Z","depth":0,"parameterNumber":3,"parameterNumberName":"V-component_of_WINDS"},"data":[0,0,0,0,0,0,0,0,0,0,0,0,0,0,0,0,0,0,0,0,0,0,0,0,0,0,0,0,0,0,0,0,0,0,0,0,0,0,0,0,0,0,0,0,0,0,0,0,0,0,0,0,0,0,0,0,0,0,-0.7414,-0.7413,0,-0.7314,-0.7313,-0.7312,-0.7249,-0.7249,-0.7249,-0.7248,-0.714,-0.7137,-0.7135,0,0,0,0,0,0,0,0,0,0,0,0,0,-0.7545,-0.7543,-0.7414,-0.7413,-0.7412,-0.7314,-0.7313,-0.7311,-0.7249,-0.7249,-0.7248,-0.7248,-0.7141,-0.7137,-0.7134,0,0,0,0,0,0,0,0,0,0,0,0,0,-0.7471,-0.7542,-0.7414,-0.7369,-0.7364,-0.7315,-0.7313,-0.7311,-0.7249,-0.7249,-0.7248,-0.7248,-0.7142,-0.7138,-0.7134,-0.712,0,0,-0.7122,-0.712,0,0,0,0,0,0,0,0,-0.7475,-0.7466,-0.7377,-0.7372,-0.7366,-0.7294,-0.7319,-0.7247,-0.7249,-0.7293,-0.7248,-0.7248,-0.7191,-0.7183,-0.7165,-0.7115,-0.711,-0.7122,-0.7119,-0.7118,-0.7117,0,0,0,0,0,0,0,-0.748,-0.747,-0.7374,-0.7376,-0.7369,-0.7352,-0.7341,-0.7305,-0.7246,-0.7289,-0.7284,-0.7273,-0.7188,-0.7169,-0.7162,-0.7109,-0.7122,-0.7118,-0.7116,-0.7115,-0.7039,-0.704,0,0,0,0,0,0,-0.7494,-0.7475,-0.7378,-0.7371,-0.7421,-0.735,-0.7337,-0.7317,-0.7246,-0.7235,-0.7274,-0.7271,-0.7176,-0.7167,-0.7158,-0.7135,-0.7118,-0.7114,-0.7112,-0.7039,-0.7039,-0.704,0,0,0,0,0,0,-0.7497,-0.7486,-0.7382,-0.7422,-0.7407,-0.7348,-0.7326,-0.7316,-0.7297,-0.7235,-0.7223,-0.7266,-0.7175,-0.7163,-0.713,-0.7131,-0.7112,-0.7109,-0.7039,-0.7039,-0.7039,-0.7091,0,0,0,0,0,0,-0.7501,-0.7487,-0.7483,-0.7422,-0.7405,-0.7357,-0.7326,-0.7314,-0.7291,-0.7286,-0.7224,-0.7213,-0.7174,-0.7136,-0.7126,-0.7125,-0.7106,-0.7038,-0.7039,-0.7039,-0.7089,-0.7094,-0.7097,0,0,0,0,0,-0.7506,-0.75,-0.7483,-0.7472,-0.7399,-0.7358,-0.7348,-0.7304,-0.7292,-0.7285,-0.7245,-0.7215,-0.7133,-0.7133,-0.7121,-0.7119,-0.7038,-0.7039,-0.7039,-0.7087,-0.7093,-0.7097,0,0,0,0,0,0,-0.7561,-0.7492,-0.7471,-0.7447,-0.7409,-0.7347,-0.7338,-0.7311,-0.7274,-0.7271,-0.7216,-0.7203,-0.7174,-0.7143,-0.7145,-0.7101,-0.7082,-0.708,-0.7122,-0.7127,-0.7131,-0.7138,-0.7103,0,0,0,0,0,-0.7571,-0.7545,-0.7485,-0.7469,-0.7451,-0.7398,-0.7378,-0.7348,-0.7306,-0.7289,-0.7246,-0.7204,-0.7168,-0.7146,-0.711,-0.7085,-0.7069,-0.7077,-0.7081,-0.7085,-0.7084,-0.7066,-0.7069,-0.7042,-0.7042,-0.7042,0,0,-0.7589,-0.7548,-0.7535,-0.7479,-0.7446,-0.7418,-0.7385,-0.7357,-0.7335,-0.7283,-0.7249,-0.7217,-0.7166,-0.7136,-0.7121,-0.711,-0.7088,-0.7086,-0.7089,-0.7086,-0.7067,-0.707,-0.7072,-0.7043,-0.7042,-0.7042,0,0,-0.761,-0.7577,-0.756,-0.7527,-0.7478,-0.7443,-0.7439,-0.7381,-0.7358,-0.7323,-0.7283,-0.7255,-0.7196,-0.7161,-0.7135,-0.7142,-0.7112,-0.7131,-0.7152,-0.7135,-0.7137,-0.7139,-0.714,-0.7141,-0.7131,-0.7131,-0.7131,0,-0.7639,-0.7598,-0.7553,-0.7528,-0.7504,-0.7457,-0.7438,-0.7408,-0.7349,-0.7332,-0.732,-0.7244,-0.7206,-0.7167,-0.7169,-0.715,-0.7142,-0.7138,-0.7141,-0.7142,-0.7143,-0.7143,-0.7143,-0.7133,-0.7133,-0.7133,-0.7132,0,-0.7635,-0.7607,-0.7598,-0.7544,-0.7519,-0.7497,-0.7447,-0.7426,-0.7398,-0.7363,-0.7327,-0.7281,-0.7234,-0.7222,-0.7194,-0.7178,-0.7172,-0.7152,-0.7131,-0.7149,-0.7148,-0.7148,-0.7137,-0.7136,-0.7135,-0.7135,0,0,-0.7687,-0.7609,-0.7607,-0.7581,-0.7523,-0.7499,-0.7474,-0.743,-0.7412,-0.7372,-0.7348,-0.7298,-0.7279,-0.725,-0.7217,-0.7203,-0.7209,-0.7183,-0.7181,-0.7188,-0.7186,-0.7202,-0.7203,-0.7189,-0.7189,-0.7189,-0.719,0,-0.7698,-0.7652,-0.7612,-0.758,-0.7552,-0.7507,-0.7485,-0.7446,-0.7412,-0.7382,-0.7344,-0.7309,-0.7287,-0.7269,-0.7253,-0.7212,-0.7207,-0.7211,-0.7163,-0.7162,-0.7177,-0.7202,-0.7218,-0.7222,-0.719,-0.719,-0.719,0,-0.7704,-0.7669,-0.7635,-0.7579,-0.7566,-0.7547,-0.7502,-0.7475,-0.7428,-0.7405,-0.7373,-0.7338,-0.7306,-0.729,-0.7244,-0.7248,-0.7225,-0.7202,-0.7201,-0.7194,-0.7177,-0.7195,-0.7222,-0.7223,-0.7189,-0.7189,-0.7189,0,-0.7744,-0.7687,-0.7659,-0.7639,-0.7573,-0.7561,-0.7532,-0.7486,-0.7461,-0.7422,-0.7405,-0.7362,-0.7337,-0.7303,-0.7257,-0.725,-0.7216,-0.7195,-0.7193,-0.7194,-0.7187,-0.7188,-0.7211,-0.7175,-0.7175,-0.7175,-0.7175,0,-0.776,-0.774,-0.7676,-0.7659,-0.7635,-0.7588,-0.7565,-0.7532,-0.7491,-0.7464,-0.7422,-0.7398,-0.7339,-0.7307,-0.727,-0.7237,-0.7227,-0.7205,-0.7195,-0.7208,-0.7211,-0.7192,-0.719,-0.7175,-0.7175,-0.7175,-0.7175,0,-0.78,-0.7757,-0.7723,-0.7664,-0.7649,-0.7634,-0.7582,-0.7562,-0.7526,-0.7493,-0.7483,-0.7426,-0.7386,-0.7337,-0.728,-0.7256,-0.7225,-0.7211,-0.7242,-0.7236,-0.7236,-0.7236,-0.7247,-0.7245,-0.7212,-0.7213,-0.7213,0,-0.7812,-0.7797,-0.7736,-0.7717,-0.769,-0.7659,-0.7635,-0.7586,-0.7562,-0.7508,-0.7494,-0.7451,-0.7414,-0.7352,-0.7304,-0.726,-0.7243,-0.725,-0.7236,-0.7249,-0.7242,-0.7243,-0.724,-0.7253,-0.7254,-0.7255,-0.7255,0,-0.7838,-0.7818,-0.7785,-0.7745,-0.7717,-0.7682,-0.7645,-0.7631,-0.7575,-0.7549,-0.7509,-0.748,-0.7423,-0.738,-0.733,-0.7298,-0.7266,-0.726,-0.7257,-0.7269,-0.7287,-0.7276,-0.725,-0.726,-0.7259,-0.7259,-0.7258,-0.7258,-0.7864,-0.7848,-0.7803,-0.7767,-0.7735,-0.7701,-0.768,-0.7642,-0.7608,-0.756,-0.7532,-0.7492,-0.7444,-0.7374,-0.7343,-0.7309,-0.7297,-0.7293,-0.7292,-0.7291,-0.7295,-0.7294,-0.73,-0.7299,-0.7299,-0.7299,-0.7299,0,-0.7887,-0.7856,-0.7824,-0.7775,-0.7746,-0.7721,-0.7679,-0.7656,-0.7622,-0.7581,-0.7546,-0.7499,-0.7457,-0.7406,-0.736,-0.7342,-0.7326,-0.7331,-0.7332,-0.7324,-0.7308,-0.7315,-0.7345,-0.7345,-0.7345,-0.7345,-0.7345,-0.7345,-0.7895,-0.7866,-0.784,-0.7793,-0.7761,-0.7724,-0.7701,-0.7669,-0.7636,-0.7586,-0.7552,-0.752,-0.7474,-0.7424,-0.7383,-0.7369,-0.7353,-0.7363,-0.7344,-0.733,-0.7326,-0.7322,-0.7328,-0.736,-0.736,-0.7362,-0.7362,-0.7362]}]]